ROCKY HARBOUR CS/NF, current weather conditions

sailwx.info

Wind from 300 at 3 knots

Air temperature 25.0° C
Dewpoint 19.0° C

Last reported at 2014-Jul-30 19:00 UTC.
Time now 2014-Jul-30 21:15 UTC

Location: N 49°34' W 057°53'.
View on Google Maps.

See reports from other nearby stations

  
Tides and Currents Weather Stations Pressure Air Temp Water Temp Dewpoint Dewpoint Depression Visibility Wind Speed Wind Dir Waves Ship Positions
date/time (UTC)wind fromknots sea level pressurealtimeterstation pressurevisibilityair tempwater tempwave heightnotes
2014-Jul-30 20:00 290 3 24.0
2014-Jul-30 19:00 300 3 25.0
2014-Jul-30 18:00 280 3 22.0
2014-Jul-30 17:00 310 4 21.0
2014-Jul-30 16:00 310 4 20.0
2014-Jul-30 15:00 300 4 21.0
2014-Jul-30 14:00 300 4 20.0
2014-Jul-30 13:00 260 6 22.0
2014-Jul-30 12:00 280 4 22.0
2014-Jul-30 11:00 220 3 23.0
2014-Jul-30 10:00 140 2 21.0
2014-Jul-30 09:00 200 1 21.0
2014-Jul-30 08:00 200 5 22.0
2014-Jul-30 07:00 180 5 22.0
2014-Jul-30 06:00 180 5 22.0
2014-Jul-30 05:00 170 6 23.0
2014-Jul-30 04:00 190 6 23.0
2014-Jul-30 03:00 180 7 23.0
2014-Jul-30 02:00 180 6 24.0
2014-Jul-30 01:00 180 6 24.0
2014-Jul-30 00:00 180 5 25.0
2014-Jul-29 23:00 180 7 25.0
2014-Jul-29 22:00 160 7 26.0
2014-Jul-29 21:00 170 6 27.0
2014-Jul-29 20:00 160 7 27.0
2014-Jul-29 19:00 160 8 gusting 15 28.0
2014-Jul-29 18:00 160 8 gusting 16 28.0
2014-Jul-29 17:00 160 10 gusting 20 25.0
2014-Jul-29 16:00 160 12 gusting 23 25.0
2014-Jul-29 15:00 150 11 gusting 20 24.0
2014-Jul-29 14:00 160 8 gusting 17 22.0
2014-Jul-29 13:00 160 11 gusting 23 20.0
2014-Jul-29 12:00 150 8 gusting 16 21.0
2014-Jul-29 11:00 140 12 gusting 20 20.0
2014-Jul-29 10:00 150 11 gusting 19 20.0
2014-Jul-29 09:00 150 9 gusting 20 20.0
2014-Jul-29 08:00 150 10 gusting 17 20.0
2014-Jul-29 07:00 140 9 gusting 19 19.0
2014-Jul-29 06:00 150 7 19.0
2014-Jul-29 05:00 130 7 gusting 15 20.0
2014-Jul-29 04:00 140 10 gusting 18 20.0
2014-Jul-29 03:00 150 9 gusting 17 20.0
2014-Jul-29 02:00 140 8 gusting 16 20.0
2014-Jul-29 01:00 140 9 gusting 15 21.0
2014-Jul-29 00:00 150 8 gusting 16 22.0
2014-Jul-28 23:00 140 7 23.0
2014-Jul-28 22:00 140 7 24.0
2014-Jul-28 21:00 140 7 24.0